Lexington Weather

Lexington, Massachusetts, USA

57°F
6/23/2021 2:11am 
  • Lexington Conditions: Partly cloudy
  • Temperature: 56.5°F / 13.6°CColder 2.0°F than last hour.
  • Dew Point: 54.5°FDecreased 2.5°Fsince last hour.
  • Relative Humidity: 93%Decreased 2.0% since last hour.
  • Wind: Calm, 10-min avg: Calm, gust: None
  • Barometer: 29.83 in Steady
  • Visibility: 10 miles
  • Rain Today: 0.00 in
  •   

Regional Weather Roundup
for Boston / Norton, MA

        
000
ASUS41 KBOX 161804
RWRBOX

REGIONAL WEATHER ROUNDUP
NATIONAL WEATHER SERVICE BOSTON/NORTON MA
200 PM EDT WED JUN 16 2021

NOTE:  "FAIR" INDICATES FEW OR NO CLOUDS BELOW 12,000 FEET WITH NO 
SIGNIFICANT WEATHER AND/OR OBSTRUCTIONS TO VISIBILITY.

MAZALL-161900-
EASTERN MASSACHUSETTS
  
CITY           SKY/WX    TMP DP  RH WIND       PRES   REMARKS
BOSTON         MOSUNNY   74  43  32 W14       29.77S                  
6HR MIN TEMP:  65; 6HR MAX TEMP:  76;                                

BEVERLY        SUNNY     72  49  44 NW13G21   29.76S                  
LAWRENCE       SUNNY     71  44  37 NW13G22   29.79S                  
BEDFORD        MOSUNNY   73  47  39 NW9G22    29.77S                  
BLUE HILL        N/A     71  46  40 NW13G20   29.77S                  
NORWOOD        SUNNY     76  44  32 W14G22    29.77S                  
MARSHFIELD     MOSUNNY  -40 N/A N/A N9        29.76S WCI -65          
PLYMOUTH       MOSUNNY   72  45  37 W10       29.76S                  
TAUNTON        SUNNY     75  44  33 NW10G18   29.76S                  
NEW BEDFORD    MOSUNNY   75  46  35 W12       29.76S                  
$$

MAZALL-161900-
CAPE COD AND THE ISLANDS
  
CITY           SKY/WX    TMP DP  RH WIND       PRES   REMARKS
FALMOUTH       NOT AVBL                                               
HYANNIS        MOSUNNY   72  48  42 N13       29.75S                  
CHATHAM        NOT AVBL                                               
PROVINCETOWN   SUNNY     68  55  63 NW8       29.78S                  
NANTUCKET      SUNNY     74  50  42 N7        29.78S                  
MARTHAS VNYRD  MOSUNNY   75  52  44 N13       29.77S                  
$$
 
MAZALL-161900-
CENTRAL AND WESTERN MASSACHUSETTS
  
CITY           SKY/WX    TMP DP  RH WIND       PRES   REMARKS
WORCESTER      MOSUNNY   68  41  37 W8        29.81S                  
6HR MIN TEMP:  60; 6HR MAX TEMP:  70;                                

FITCHBURG      SUNNY     71  41  33 N12G18    29.80S                  
ORANGE         SUNNY     71  39  31 NW12      29.83S                  
SPRINGFIELD    MOSUNNY   73  40  30 NW16      29.81R                  
WESTFIELD      SUNNY     74  40  29 NW16      29.82S                  
NORTH ADAMS    MOSUNNY   67  43  41 NW9       29.86S                  
PITTSFIELD     MOSUNNY   65  40  39 N12G23    29.86R                  
$$
 
RIZALL-161900-
RHODE ISLAND
  
CITY           SKY/WX    TMP DP  RH WIND       PRES   REMARKS
PROVIDENCE     MOSUNNY   75  40  28 NW14      29.79R                  
6HR MIN TEMP:  66; 6HR MAX TEMP:  76;                                

NEWPORT        SUNNY     74  45  35 NW10      29.78S                  
BLOCK ISLAND   SUNNY     73  53  49 W13       29.81R                  
SMITHFIELD     SUNNY     71  45  39 NW13G20   29.80R                  
WESTERLY       PTSUNNY   73  44  35 VRB7      29.79S                  
$$
 
CTZALL-161900-
CONNECTICUT
  
CITY           SKY/WX    TMP DP  RH WIND       PRES   REMARKS
BRADLEY INTL   MOSUNNY   74  40  29 NW10      29.81S                  
6HR MIN TEMP:  64; 6HR MAX TEMP:  75;                                

HARTFORD       SUNNY     75  41  29 W13G21    29.81F                  
BRIDGEPORT     MOSUNNY   75  44  33 W8G23     29.83F                  
DANBURY        MOSUNNY   73  45  36 N12       29.86F                  
GROTON         MOSUNNY   74  45  35 VRB6G18   29.79S                  
NEW HAVEN      MOSUNNY   75  46  35 NW12G20   29.83S                  
CHESTER        FAIR      75  41  29 W8G21     29.82S                  
MERIDEN        SUNNY     73  41  31 NW13G24   29.83S                  
WILLIMANTIC    SUNNY     72  39  30 NW12G18   29.81S                  
OXFORD         MOSUNNY   68  45  43 N14G22    29.86F                  
$$

MEZ002-015-021-024-NHZ003-005-008-011-012-014-VTZ005-008-161900-
NORTHERN NEW ENGLAND
  
CITY           SKY/WX    TMP DP  RH WIND       PRES   REMARKS
PORTLAND ME    MOSUNNY   71  45  39 NW16      29.75S                  
6HR MIN TEMP:  61; 6HR MAX TEMP:  72;                                

BANGOR ME      MOSUNNY   70  43  37 NW14G22   29.68S                  
CONCORD NH     MOSUNNY   70  42  36 NW10G21   29.79S                  
MANCHESTER NH  MOSUNNY   73  40  30 NW17G25   29.78S                  
NASHUA NH      MOSUNNY   72  43  35 N12G20    29.80S                  
PORTSMOUTH NH  MOSUNNY   72  39  30 W13       29.77S                  
JAFFREY NH     MOSUNNY   68  41  37 W10G20    29.83R                  
KEENE NH       MOSUNNY   68  42  38 NW17      29.83S                  
BURLINGTON VT  PTSUNNY   69  38  32 N13G21    29.84F                  
MT. WASHINGTON NOT AVBL                                               
$$

NYZ052-076-161900-
EASTERN NEW YORK
  
CITY           SKY/WX    TMP DP  RH WIND       PRES   REMARKS
ALBANY         PTSUNNY   66  44  45 W12G23    29.87F                  
6HR MIN TEMP:  57; 6HR MAX TEMP:  67;                                

NEW YORK CITY  MOSUNNY   75  39  27 NW10G26   29.84S                  
6HR MIN TEMP:  66; 6HR MAX TEMP:  76;                                

$$
 
ANZALL-161900-
MARINE OBSERVATIONS
  
STATION/POSITION TIME  TEMP    WIND        PRES    VSBY  WAVE
                       AIR SEA DIR/SP/G                  HT/PER
                 (UTC) (F)     (DEG/KT/KT) (MB)    (MI)  (FT/S)
BOSTON BUOY      1740   64 62  320/  8/ 10 1008.4R
BUZZARDS BAY     1700          310/  9/ 10 1009.3S
NANTUCKET SOUND  1740      65                N/A
MASS BAY-STELLWA NOT AVBL
ISLE OF SHOALS   1700   65     320/  9/ 10 1007.2R
S OF BLOCK IS    1726      64                N/A           4/ 8
$$

......................KEY.........................
  SKY/WX - SKY CONDITION/PRESENT WEATHER
  TMP    - TEMPERATURE IN FAHRENHEIT
  DWPT   - DEWPOINT IN FAHRENHEIT
  RH     - RELATIVE HUMIDITY IN PERCENT
  WIND   - DIRECTION AND SPEED IN MPH
  PRES   - MEAN SEA LEVEL PRESSURE IN INCHES OF HG
  WCI    - WIND CHILL INDEX
  VSB    - VISIBILITY IN MILES
  HX     - HEAT INDEX
  TC     - TEMPERATURE IN CELSIUS
  VRB    - VARIABLE WIND DIRECTION
  N/A    - NOT AVAILABLE
  
      

Other recent Regional Weather Roundups

Wed Jun 23, 2:04am

Wed Jun 23, 1:05am

Wed Jun 23, 12:04am

Tue Jun 22, 11:04pm

Tue Jun 22, 10:04pm

Tue Jun 22, 9:05pm

Tue Jun 22, 8:04pm

Tue Jun 22, 7:05pm

Tue Jun 22, 6:04pm

Tue Jun 22, 5:04pm

Tue Jun 22, 4:04pm

Tue Jun 22, 3:05pm

Tue Jun 22, 2:05pm

Tue Jun 22, 1:04pm

Tue Jun 22, 12:04pm

Tue Jun 22, 11:04am

Tue Jun 22, 10:04am

Tue Jun 22, 9:04am

Tue Jun 22, 8:05am

Tue Jun 22, 7:04am

Tue Jun 22, 6:04am

Tue Jun 22, 5:04am

Tue Jun 22, 4:04am

Tue Jun 22, 3:04am

Tue Jun 22, 2:04am

Tue Jun 22, 1:04am

Tue Jun 22, 12:04am

Mon Jun 21, 11:04pm

Mon Jun 21, 10:04pm

Mon Jun 21, 9:05pm

Mon Jun 21, 8:04pm

Mon Jun 21, 7:04pm

Mon Jun 21, 6:04pm

Mon Jun 21, 5:04pm

Mon Jun 21, 4:04pm

Mon Jun 21, 3:04pm

Mon Jun 21, 2:04pm

Mon Jun 21, 1:04pm

Mon Jun 21, 12:04pm

Mon Jun 21, 11:04am

Mon Jun 21, 10:04am

Mon Jun 21, 9:04am

Mon Jun 21, 8:04am

Mon Jun 21, 7:04am

Mon Jun 21, 6:04am

Mon Jun 21, 5:04am

Mon Jun 21, 4:04am

Mon Jun 21, 3:04am

Mon Jun 21, 2:04am

Mon Jun 21, 1:04am

Mon Jun 21, 12:04am

Sun Jun 20, 11:04pm

Sun Jun 20, 10:04pm

Sun Jun 20, 9:04pm

Sun Jun 20, 8:04pm

Sun Jun 20, 7:04pm

Sun Jun 20, 6:04pm

Sun Jun 20, 5:04pm

Sun Jun 20, 4:04pm

Sun Jun 20, 3:04pm

Sun Jun 20, 2:04pm

Sun Jun 20, 1:05pm

Sun Jun 20, 12:04pm

Sun Jun 20, 11:04am

Sun Jun 20, 10:04am

Sun Jun 20, 9:04am

Sun Jun 20, 8:04am

Sun Jun 20, 7:04am

Sun Jun 20, 6:04am

Sun Jun 20, 5:04am

Sun Jun 20, 4:04am

Sun Jun 20, 3:04am

Sun Jun 20, 2:04am

Sun Jun 20, 1:04am

Sun Jun 20, 12:05am

Sat Jun 19, 11:04pm

Sat Jun 19, 10:04pm

Sat Jun 19, 9:05pm

Sat Jun 19, 8:04pm

Sat Jun 19, 7:04pm

Sat Jun 19, 6:04pm

Sat Jun 19, 5:04pm

Sat Jun 19, 4:04pm

Sat Jun 19, 3:04pm

Sat Jun 19, 2:04pm

Sat Jun 19, 1:04pm

Sat Jun 19, 12:04pm

Sat Jun 19, 11:04am

Sat Jun 19, 10:04am

Sat Jun 19, 9:04am

Sat Jun 19, 8:04am

Sat Jun 19, 7:04am

Sat Jun 19, 6:04am

Sat Jun 19, 5:04am

Sat Jun 19, 4:04am

Sat Jun 19, 3:04am

Sat Jun 19, 2:04am

Sat Jun 19, 1:04am

Sat Jun 19, 12:04am

Fri Jun 18, 11:05pm

Fri Jun 18, 10:04pm

Fri Jun 18, 9:04pm

Fri Jun 18, 8:04pm

Fri Jun 18, 7:04pm

Fri Jun 18, 6:04pm

Fri Jun 18, 5:04pm

Fri Jun 18, 4:04pm

Fri Jun 18, 3:04pm

Fri Jun 18, 2:04pm

Fri Jun 18, 1:05pm

Fri Jun 18, 12:04pm

Fri Jun 18, 11:04am

Fri Jun 18, 10:05am

Fri Jun 18, 9:04am

Fri Jun 18, 8:04am

Fri Jun 18, 7:04am

Fri Jun 18, 6:04am

Fri Jun 18, 5:04am

Fri Jun 18, 4:04am

Fri Jun 18, 3:04am

Fri Jun 18, 2:04am

Fri Jun 18, 1:04am

Fri Jun 18, 12:04am

Thu Jun 17, 11:04pm

Thu Jun 17, 10:04pm

Thu Jun 17, 9:04pm

Thu Jun 17, 8:04pm

Thu Jun 17, 7:04pm

Thu Jun 17, 6:04pm

Thu Jun 17, 5:04pm

Thu Jun 17, 4:04pm

Thu Jun 17, 3:04pm

Thu Jun 17, 2:04pm

Thu Jun 17, 1:05pm

Thu Jun 17, 12:04pm

Thu Jun 17, 11:04am

Thu Jun 17, 10:05am

Thu Jun 17, 9:04am

Thu Jun 17, 8:04am

Thu Jun 17, 7:04am

Thu Jun 17, 6:04am

Thu Jun 17, 5:04am

Thu Jun 17, 4:04am

Thu Jun 17, 3:04am

Thu Jun 17, 2:04am

Thu Jun 17, 1:04am

Thu Jun 17, 12:04am

Wed Jun 16, 11:04pm

Wed Jun 16, 10:04pm

Wed Jun 16, 9:04pm

Wed Jun 16, 8:04pm

Wed Jun 16, 7:04pm

Wed Jun 16, 6:04pm

Wed Jun 16, 5:04pm

Wed Jun 16, 4:04pm

Wed Jun 16, 3:04pm

Wed Jun 16, 1:04pm

Wed Jun 16, 12:04pm

Wed Jun 16, 11:04am

Wed Jun 16, 10:04am

Wed Jun 16, 9:04am

Wed Jun 16, 8:04am

Wed Jun 16, 7:04am

Wed Jun 16, 6:04am

Wed Jun 16, 5:04am

Wed Jun 16, 4:04am

Wed Jun 16, 3:04am

Meta data:

ID: 7e1cf1da-ce3c-4353-ab27-42baade02f6e
Link: https://api.weather.gov/products/7e1cf1da-ce3c-4353-ab27-42baade02f6e